Miscellaneous Local Product
Issued by NWS Hastings, NE

Home | Current Version | Previous Version | Graphics & Text | Print | Product List | Glossary On
Versions: 1 2 3 4 5 6 7 8 9 10 11 12 13 14 15 16 17 18 19 20 21 22 23 24 25 26 27 28 29 30 31 32 33 34 35 36 37 38 39 40 41 42 43 44 45 46 47 48 49 50
986
AXUS43 KGID 100502
MISGRI

GID CWA HOURLY WEATHER ROUNDUP
NATIONAL WEATHER SERVICE HASTINGS NE
1100 PM CST TUE FEB 09 2016

NOTE: "FAIR" INDICATES FEW OR NO CLOUDS BELOW 12,000 FEET WITH NO
SIGNIFICANT WEATHER AND/OR OBSTRUCTIONS TO VISIBILITY.

...SOUTH CENTRAL NEBRASKA...

CITY           SKY/WX    TMP DP  RH WIND       PRES   REMARKS
GRAND ISLAND   CLOUDY    25  16  68 S13       30.15F WCI  14
HASTINGS       CLOUDY    24  16  71 S12       30.14F WCI  13
ORD            CLOUDY    28  22  78 CALM      30.10F
YORK           CLOUDY    23  16  74 SW8       30.19F WCI  14
AURORA         CLOUDY    24  15  70 S9        30.17F WCI  14
LEXINGTON      CLOUDY    33  25  71 SW7       30.13F WCI  27
HOLDREGE       CLOUDY    28  22  76 SW12G18   30.15F WCI  18
HEBRON         CLOUDY    24  16  71 SW5       30.22F WCI  18

...NEBRASKA PANHANDLE...

CITY           SKY/WX    TMP DP  RH WIND       PRES   REMARKS
CHADRON        CLEAR     35  28  75 W10       30.11S WCI  27
ALLIANCE       CLEAR     31  26  82 W13       30.11F WCI  21
SCOTTSBLUFF    CLEAR     31  26  82 NW6       30.17S WCI  25
SIDNEY         CLEAR     38  27  64 W18       30.17F WCI  28

...WESTERN AND NORTH CENTRAL NEBRASKA...

CITY           SKY/WX    TMP DP  RH WIND       PRES   REMARKS
VALENTINE      CLOUDY    32  28  85 CALM      30.07F
AINSWORTH      CLOUDY    34  28  76 W5        30.07F WCI  30
ONEILL         CLOUDY    28  20  72 S5        30.10S WCI  23
BROKEN BOW     CLOUDY    32  26  78 SW5       30.10F WCI  27
IMPERIAL       CLEAR     37  28  70 W14       30.14F WCI  28
NORTH PLATTE   CLEAR     30  26  85 CALM      30.11F
MCCOOK         PTCLDY    32  27  81 SW8       30.15F WCI  25

...EASTERN NEBRASKA...

CITY           SKY/WX    TMP DP  RH WIND       PRES   REMARKS
NORFOLK        CLOUDY    25  16  68 SW12      30.13F WCI  14
SO SIOUX CITY  PTCLDY    20  13  74 S5        30.18F WCI  13
TEKAMAH        CLEAR     41  12  30 S6        30.20F
COLUMBUS       CLOUDY    25  10  54 SW7       30.17F WCI  17
ALBION         CLOUDY    25  17  69 S7        30.15S WCI  18
OMAHA EPPLEY   CLEAR     22  13  68 CALM      30.21F
OFFUTT AFB     CLEAR     18  14  84 CALM      30.21F
MILLARD        CLEAR     21  15  76 CALM      30.22F
LINCOLN        CLOUDY    21  14  74 S3        30.22F
NEBRASKA CITY  CLEAR     18  11  74 W3        30.22F
BEATRICE       PTCLDY    22  16  76 W6        30.22F WCI  15
FALLS CITY     CLEAR     19  10  68 W3        30.25F

...NORTHERN KANSAS...

CITY           SKY/WX    TMP DP  RH WIND       PRES   REMARKS
GOODLAND       CLEAR     37  27  67 W13       30.20F WCI  29
HILL CITY      CLOUDY    32  24  72 SW8       30.20F WCI  25
NORTON         CLOUDY    34  21  60 SW10      30.15F WCI  26
PHILLIPSBURG   CLOUDY    30  23  74 CALM      30.20F
SMITH CENTER   CLOUDY    27  19  74 CALM      30.21F
BELOIT         CLOUDY    27  18  69 S3        30.23F
HAYS           CLOUDY    30  16  55 SW9       30.22F WCI  22
RUSSELL        CLOUDY    29  21  72 S8        30.21F WCI  21
CONCORDIA      CLEAR     22  14  71 S3        30.23F
SALINA         CLEAR     24  13  62 SE6       30.27F WCI  17
TOPEKA         PTCLDY    24  11  57 W6        30.28F WCI  17



USA.gov is the U.S. government's official web portal to all federal, state and local government web resources and services.